[[{"header":{"parameterUnit":"m.s-1","parameterCategory":1,"la1":30.2991,"la2":30.254,"lo1":-89.0895,"lo2":-89.0444,"dy":0.0017,"dx":0.0017,"nx":28,"ny":28,"refTime":"2024-10-17T21:00:00:Z","depth":0,"parameterNumber":2,"parameterNumberName":"U-component_of_WINDS"},"data":[0,0,0,0,0,0,0,0,0,0,0,0,0,0,0,0,0,0,0,0,0,0,0,0,0,0,0,0,0,0,0,0,0,0,0,0,0,0,0,0,0,0,0,0,0,0,0,0,0,0,0,0,0,0,0,0,0,0,-5.0615,-5.0616,0,-5.0691,-5.0692,-5.0692,-5.0502,-5.0496,-5.049,-5.0484,-5.0565,-5.0573,-5.058,0,0,0,0,0,0,0,0,0,0,0,0,0,-5.0309,-5.0316,-5.0615,-5.0616,-5.0617,-5.0691,-5.0692,-5.0693,-5.0503,-5.0495,-5.0488,-5.0481,-5.0563,-5.0572,-5.0581,0,0,0,0,0,0,0,0,0,0,0,0,0,-5.0419,-5.0318,-5.0615,-5.0531,-5.0524,-5.069,-5.0692,-5.0693,-5.0504,-5.0495,-5.0486,-5.0478,-5.056,-5.0571,-5.0582,-5.0834,0,0,-5.0618,-5.0623,0,0,0,0,0,0,0,0,-5.0413,-5.0431,-5.0543,-5.0537,-5.053,-5.0577,-5.0613,-5.0741,-5.0506,-5.0512,-5.0484,-5.0473,-5.0577,-5.0586,-5.062,-5.0838,-5.0842,-5.0619,-5.0626,-5.0631,-5.0634,0,0,0,0,0,0,0,-5.0406,-5.0426,-5.0645,-5.0544,-5.0537,-5.049,-5.0496,-5.0636,-5.0594,-5.0511,-5.0497,-5.0508,-5.0572,-5.061,-5.0621,-5.0843,-5.0619,-5.0629,-5.0636,-5.0641,-5.1269,-5.1278,0,0,0,0,0,0,-5.0409,-5.0421,-5.0643,-5.0647,-5.0448,-5.0503,-5.051,-5.0571,-5.0592,-5.0586,-5.0516,-5.0499,-5.0594,-5.0608,-5.0623,-5.0917,-5.0631,-5.0642,-5.0648,-5.1259,-5.1271,-5.1282,0,0,0,0,0,0,-5.0403,-5.043,-5.064,-5.0531,-5.0554,-5.0518,-5.0589,-5.0578,-5.0615,-5.0596,-5.0588,-5.0563,-5.0588,-5.0607,-5.0782,-5.0918,-5.0647,-5.0658,-5.1248,-5.1263,-5.1276,-5.151,0,0,0,0,0,0,-5.0395,-5.0429,-5.0524,-5.0534,-5.056,-5.0798,-5.0597,-5.0586,-5.0635,-5.0614,-5.0637,-5.0633,-5.0582,-5.0766,-5.0794,-5.0929,-5.0667,-5.1236,-5.1255,-5.1272,-5.149,-5.1531,-5.1566,0,0,0,0,0,-5.0385,-5.0589,-5.053,-5.0558,-5.0678,-5.0806,-5.0821,-5.0758,-5.0647,-5.0742,-5.073,-5.0632,-5.0899,-5.0786,-5.0816,-5.0956,-5.1227,-5.1249,-5.127,-5.1473,-5.1523,-5.1565,0,0,0,0,0,0,-5.0597,-5.0588,-5.0523,-5.0737,-5.0773,-5.0774,-5.0892,-5.0813,-5.0883,-5.086,-5.0779,-5.0786,-5.0977,-5.0984,-5.0858,-5.12,-5.1044,-5.1073,-5.1188,-5.1235,-5.1272,-5.1266,-5.0676,0,0,0,0,0,-5.0669,-5.0772,-5.0759,-5.0949,-5.097,-5.0929,-5.0982,-5.093,-5.0965,-5.098,-5.098,-5.1019,-5.1111,-5.1174,-5.1258,-5.1491,-5.1492,-5.1602,-5.164,-5.1671,-5.1697,-5.1818,-5.1866,-5.1353,-5.1353,-5.1353,0,0,-5.0818,-5.0826,-5.0896,-5.0992,-5.1014,-5.1123,-5.0943,-5.1067,-5.1147,-5.0999,-5.1164,-5.1166,-5.1204,-5.1409,-5.1499,-5.1421,-5.1839,-5.1699,-5.1724,-5.1732,-5.1846,-5.1894,-5.1938,-5.1368,-5.1365,-5.1363,0,0,-5.1144,-5.1162,-5.132,-5.1346,-5.1381,-5.1352,-5.139,-5.1402,-5.1397,-5.1561,-5.1452,-5.1547,-5.1708,-5.1739,-5.1776,-5.2114,-5.2026,-5.2144,-5.2341,-5.2461,-5.2501,-5.2536,-5.2655,-5.2699,-5.2169,-5.217,-5.2171,0,-5.1326,-5.1485,-5.1412,-5.1543,-5.1587,-5.1457,-5.1616,-5.1645,-5.1708,-5.1742,-5.1653,-5.185,-5.1867,-5.2077,-5.2159,-5.2194,-5.2234,-5.214,-5.2501,-5.2536,-5.2568,-5.268,-5.2725,-5.2184,-5.2182,-5.2181,-5.218,0,-5.1705,-5.1817,-5.1941,-5.2002,-5.2061,-5.2206,-5.2155,-5.2224,-5.2167,-5.2147,-5.2315,-5.233,-5.2414,-5.246,-5.2407,-5.2663,-5.2612,-5.2514,-5.2355,-5.2632,-5.2736,-5.2778,-5.2204,-5.2199,-5.2195,-5.2191,0,0,-5.2168,-5.2185,-5.2232,-5.2257,-5.2286,-5.2372,-5.2511,-5.2591,-5.2651,-5.2698,-5.2812,-5.2951,-5.2859,-5.2901,-5.285,-5.2956,-5.322,-5.2843,-5.2843,-5.2911,-5.3501,-5.3573,-5.3624,-5.3162,-5.317,-5.3177,-5.3497,0,-5.2488,-5.2725,-5.2663,-5.2899,-5.3001,-5.2878,-5.2999,-5.303,-5.3016,-5.3101,-5.3085,-5.3184,-5.3056,-5.308,-5.3179,-5.3167,-5.3337,-5.3143,-5.3267,-5.3272,-5.3259,-5.3679,-5.3756,-5.4058,-5.3537,-5.3544,-5.3549,0,-5.2894,-5.2955,-5.3201,-5.3211,-5.3252,-5.3362,-5.3429,-5.3512,-5.3545,-5.3527,-5.3574,-5.3501,-5.3638,-5.348,-5.3667,-5.3536,-5.3584,-5.3585,-5.3595,-5.3603,-5.3426,-5.3697,-5.4152,-5.4197,-5.3613,-5.3608,-5.3603,0,-5.3205,-5.3348,-5.3513,-5.3539,-5.3556,-5.3635,-5.3647,-5.367,-5.3722,-5.3782,-5.3814,-5.3891,-5.3933,-5.3993,-5.3943,-5.3832,-5.4138,-5.3976,-5.4126,-5.4128,-5.4195,-5.4191,-5.4663,-5.423,-5.4229,-5.4228,-5.4227,0,-5.3568,-5.3723,-5.3652,-5.3754,-5.3923,-5.3851,-5.4021,-5.4018,-5.404,-5.4139,-5.4039,-5.4134,-5.4062,-5.4151,-5.4113,-5.4273,-5.4293,-5.4282,-5.427,-5.429,-5.4291,-5.4318,-5.4296,-5.424,-5.4237,-5.4235,-5.4233,0,-5.3943,-5.3902,-5.4073,-5.4075,-5.4079,-5.4203,-5.4205,-5.4299,-5.4276,-5.4403,-5.4428,-5.4394,-5.4493,-5.4449,-5.4555,-5.4529,-5.4734,-5.4695,-5.4722,-5.4711,-5.4864,-5.4849,-5.5368,-5.5432,-5.496,-5.4964,-5.4968,0,-5.4177,-5.4292,-5.4306,-5.4364,-5.4381,-5.4477,-5.4528,-5.4462,-5.452,-5.4566,-5.4654,-5.4745,-5.4813,-5.4978,-5.4963,-5.5043,-5.5004,-5.518,-5.5015,-5.5031,-5.5004,-5.4997,-5.5007,-5.5213,-5.5218,-5.5223,-5.5227,0,-5.4595,-5.4569,-5.4646,-5.4718,-5.4781,-5.4835,-5.4879,-5.4933,-5.4868,-5.4939,-5.5038,-5.5091,-5.5198,-5.5288,-5.5358,-5.537,-5.5288,-5.5279,-5.5317,-5.5338,-5.5348,-5.5342,-5.481,-5.5267,-5.5263,-5.526,-5.5258,-5.5256,-5.4905,-5.5001,-5.5025,-5.5114,-5.5141,-5.5184,-5.5272,-5.526,-5.5341,-5.5421,-5.5378,-5.5494,-5.5523,-5.5608,-5.5631,-5.5721,-5.5651,-5.5708,-5.5722,-5.5736,-5.5755,-5.5336,-5.5734,-5.5732,-5.5731,-5.573,-5.5729,0,-5.5315,-5.5325,-5.5408,-5.5472,-5.5543,-5.5459,-5.5503,-5.5568,-5.5671,-5.5704,-5.5773,-5.5887,-5.5974,-5.5966,-5.6046,-5.612,-5.6084,-5.6143,-5.6136,-5.614,-5.5814,-5.5771,-5.617,-5.617,-5.617,-5.617,-5.617,-5.617,-5.5537,-5.5695,-5.5672,-5.5841,-5.5849,-5.5961,-5.5993,-5.6033,-5.6059,-5.619,-5.6261,-5.6255,-5.6272,-5.6352,-5.6428,-5.6423,-5.6457,-5.653,-5.6511,-5.6207,-5.6163,-5.6121,-5.608,-5.6538,-5.6539,-5.6828,-5.6831,-5.6833]},{"header":{"parameterUnit":"m.s-1","parameterCategory":1,"la1":30.2991,"la2":30.254,"lo1":-89.0895,"lo2":-89.0444,"dy":0.0017,"dx":0.0017,"nx":28,"ny":28,"refTime":"2024-10-17T21:00:00:Z","depth":0,"parameterNumber":3,"parameterNumberName":"V-component_of_WINDS"},"data":[0,0,0,0,0,0,0,0,0,0,0,0,0,0,0,0,0,0,0,0,0,0,0,0,0,0,0,0,0,0,0,0,0,0,0,0,0,0,0,0,0,0,0,0,0,0,0,0,0,0,0,0,0,0,0,0,0,0,-1.5267,-1.5267,0,-1.5265,-1.5265,-1.5265,-1.5323,-1.5325,-1.5326,-1.5328,-1.5322,-1.5321,-1.5319,0,0,0,0,0,0,0,0,0,0,0,0,0,-1.5316,-1.5315,-1.5267,-1.5267,-1.5267,-1.5265,-1.5265,-1.5265,-1.5323,-1.5325,-1.5327,-1.5328,-1.5323,-1.5321,-1.5319,0,0,0,0,0,0,0,0,0,0,0,0,0,-1.5303,-1.5315,-1.5267,-1.5296,-1.5298,-1.5265,-1.5265,-1.5265,-1.5322,-1.5325,-1.5327,-1.5329,-1.5323,-1.5321,-1.5319,-1.5257,0,0,-1.5311,-1.531,0,0,0,0,0,0,0,0,-1.5303,-1.5301,-1.5292,-1.5294,-1.5297,-1.5297,-1.5281,-1.5262,-1.5322,-1.5313,-1.5328,-1.533,-1.5312,-1.531,-1.5305,-1.5257,-1.5256,-1.5311,-1.531,-1.5308,-1.5308,0,0,0,0,0,0,0,-1.5304,-1.5301,-1.5266,-1.5291,-1.5294,-1.5307,-1.5308,-1.5277,-1.5299,-1.5314,-1.5318,-1.5317,-1.5313,-1.5307,-1.5305,-1.5256,-1.5311,-1.5309,-1.5307,-1.5306,-1.5154,-1.5152,0,0,0,0,0,0,-1.5302,-1.5302,-1.5266,-1.5266,-1.5306,-1.5304,-1.5305,-1.5294,-1.53,-1.5303,-1.5315,-1.532,-1.531,-1.5308,-1.5305,-1.523,-1.5309,-1.5306,-1.5305,-1.5157,-1.5154,-1.5151,0,0,0,0,0,0,-1.5303,-1.5298,-1.5267,-1.5285,-1.5282,-1.5301,-1.5288,-1.5293,-1.5287,-1.5301,-1.5305,-1.5305,-1.5312,-1.5308,-1.5268,-1.5231,-1.5305,-1.5303,-1.516,-1.5156,-1.5152,-1.5082,0,0,0,0,0,0,-1.5304,-1.5298,-1.5276,-1.5284,-1.5281,-1.5231,-1.5286,-1.5291,-1.5283,-1.5289,-1.5292,-1.5295,-1.5313,-1.5271,-1.5265,-1.5229,-1.5301,-1.5163,-1.5158,-1.5153,-1.5088,-1.5076,-1.5066,0,0,0,0,0,-1.5305,-1.5256,-1.5275,-1.527,-1.5254,-1.5228,-1.5226,-1.525,-1.528,-1.5256,-1.5265,-1.5295,-1.5237,-1.5267,-1.5261,-1.5223,-1.5165,-1.5159,-1.5154,-1.5092,-1.5078,-1.5067,0,0,0,0,0,0,-1.5242,-1.5258,-1.5278,-1.5231,-1.5228,-1.5238,-1.521,-1.5235,-1.5222,-1.5228,-1.5257,-1.5257,-1.5211,-1.5214,-1.5247,-1.5162,-1.5206,-1.5199,-1.5161,-1.5148,-1.5138,-1.5137,-1.5299,0,0,0,0,0,-1.5223,-1.5203,-1.5217,-1.5173,-1.5171,-1.519,-1.518,-1.5199,-1.5196,-1.5195,-1.5201,-1.5196,-1.5177,-1.5163,-1.5147,-1.5089,-1.5089,-1.506,-1.505,-1.5041,-1.5033,-1.4999,-1.4986,-1.5131,-1.5132,-1.5132,0,0,-1.5183,-1.5189,-1.5174,-1.5161,-1.5161,-1.5136,-1.5189,-1.5162,-1.5144,-1.5191,-1.5152,-1.5156,-1.5153,-1.5103,-1.5081,-1.5103,-1.4993,-1.5033,-1.5026,-1.5023,-1.4992,-1.4978,-1.4966,-1.5127,-1.5128,-1.5129,0,0,-1.5096,-1.51,-1.5063,-1.5061,-1.5061,-1.5074,-1.5065,-1.5071,-1.5076,-1.5038,-1.5072,-1.505,-1.5017,-1.5012,-1.5005,-1.4915,-1.494,-1.4909,-1.4852,-1.4819,-1.4807,-1.4797,-1.4762,-1.4749,-1.4902,-1.4902,-1.4902,0,-1.5045,-1.5012,-1.504,-1.501,-1.5002,-1.5044,-1.5005,-1.5002,-1.4996,-1.4988,-1.5014,-1.4971,-1.4973,-1.492,-1.4898,-1.4892,-1.488,-1.4907,-1.4807,-1.4797,-1.4788,-1.4754,-1.4741,-1.4898,-1.4898,-1.4899,-1.4899,0,-1.4948,-1.4924,-1.4894,-1.4886,-1.4875,-1.4841,-1.4862,-1.4847,-1.4866,-1.4876,-1.4835,-1.4838,-1.4821,-1.481,-1.4829,-1.476,-1.4773,-1.4803,-1.4847,-1.477,-1.4738,-1.4726,-1.4892,-1.4893,-1.4895,-1.4896,0,0,-1.482,-1.4828,-1.4816,-1.4812,-1.4814,-1.4795,-1.4762,-1.4746,-1.4731,-1.4725,-1.4696,-1.4666,-1.4693,-1.4685,-1.4703,-1.4675,-1.4599,-1.4708,-1.4708,-1.4684,-1.4518,-1.4493,-1.4478,-1.4617,-1.4615,-1.4613,-1.4517,0,-1.4733,-1.4677,-1.4701,-1.4642,-1.4618,-1.4657,-1.4628,-1.4625,-1.4633,-1.4613,-1.4622,-1.4599,-1.4638,-1.4633,-1.4607,-1.4613,-1.4565,-1.4621,-1.4586,-1.4585,-1.4582,-1.4462,-1.4436,-1.4346,-1.4506,-1.4504,-1.4502,0,-1.4624,-1.4613,-1.4551,-1.4555,-1.4546,-1.4519,-1.4505,-1.4487,-1.4483,-1.4491,-1.4481,-1.4505,-1.447,-1.4517,-1.4467,-1.4505,-1.4492,-1.4493,-1.4491,-1.4485,-1.4536,-1.445,-1.4318,-1.4303,-1.4484,-1.4485,-1.4487,0,-1.4532,-1.4502,-1.4461,-1.4457,-1.4461,-1.4441,-1.4441,-1.4441,-1.4429,-1.4416,-1.4408,-1.4392,-1.4382,-1.4367,-1.4385,-1.4418,-1.4331,-1.4381,-1.4334,-1.4333,-1.4311,-1.4312,-1.4172,-1.4309,-1.4309,-1.431,-1.431,0,-1.443,-1.439,-1.4419,-1.4393,-1.4348,-1.4376,-1.433,-1.4336,-1.4334,-1.4308,-1.4342,-1.4317,-1.4344,-1.432,-1.4334,-1.4289,-1.4285,-1.4288,-1.4291,-1.4283,-1.4282,-1.4272,-1.4278,-1.4306,-1.4307,-1.4308,-1.4308,0,-1.4318,-1.4337,-1.4294,-1.4302,-1.4303,-1.4269,-1.4275,-1.425,-1.4261,-1.4227,-1.4221,-1.4237,-1.4211,-1.4228,-1.4202,-1.4211,-1.4151,-1.4165,-1.4152,-1.4154,-1.4105,-1.4108,-1.3951,-1.393,-1.4085,-1.4083,-1.4082,0,-1.425,-1.422,-1.4225,-1.421,-1.4209,-1.4185,-1.4173,-1.4199,-1.4185,-1.4177,-1.4152,-1.4129,-1.4112,-1.4068,-1.4076,-1.4055,-1.4067,-1.4013,-1.4064,-1.4055,-1.4061,-1.4061,-1.4057,-1.4002,-1.4,-1.3999,-1.3997,0,-1.4126,-1.4137,-1.4119,-1.4103,-1.4088,-1.4077,-1.4068,-1.4054,-1.4079,-1.4061,-1.4035,-1.4022,-1.3995,-1.397,-1.3953,-1.3951,-1.3977,-1.3982,-1.3969,-1.3958,-1.395,-1.395,-1.412,-1.3985,-1.3986,-1.3987,-1.3988,-1.3988,-1.4032,-1.4006,-1.4005,-1.3982,-1.3979,-1.397,-1.3946,-1.3953,-1.3933,-1.3913,-1.3929,-1.3897,-1.3892,-1.3871,-1.3867,-1.384,-1.3862,-1.3845,-1.384,-1.3834,-1.3825,-1.3958,-1.3838,-1.3838,-1.3839,-1.3839,-1.3839,0,-1.3907,-1.3908,-1.3887,-1.3874,-1.3856,-1.3884,-1.3876,-1.3858,-1.3829,-1.3823,-1.3805,-1.3774,-1.375,-1.3756,-1.3734,-1.3711,-1.3722,-1.3704,-1.3704,-1.3703,-1.3809,-1.3821,-1.3695,-1.3695,-1.3695,-1.3696,-1.3696,-1.3696,-1.3839,-1.3795,-1.3805,-1.3759,-1.376,-1.373,-1.3722,-1.3712,-1.3707,-1.3671,-1.3651,-1.3656,-1.3654,-1.3631,-1.361,-1.3612,-1.36,-1.3577,-1.3583,-1.3682,-1.3696,-1.3709,-1.372,-1.3575,-1.3575,-1.3478,-1.3477,-1.3476]}]]